QPF
0.04 0.03 0.03 0.02 0.02 0.02 0.02 0.03 0.02 0.03 0.02 0.02 0.03 0.03 0.04 0.04 0.04 0.04 0.05 0.05 0.05 0.05 0.06 0.05 0.05 0.06 0.06 0.04 0.03 0.02 0.03 0.02 0.02 0.02 0.01 0.01 0.02 0.02 0.03 0.02 0.03 0.03 0.04
0.06 0.05 0.04 0.05 0.05 0.04 0.04 0.06 0.06 0.06 0.07 0.08 0.08 0.06 0.06 0.08 0.09 0.08 0.06 0.05 0.04 0.03 0.02 0.03 0.03 0.04 0.05 0.04 0.03 0.02 0.03 0.03 0.02 0.02 0.01 0.01 0.01 0.02 0.03 0.03 0.04 0.04 0.05
0.08 0.05 0.06 0.07 0.07 0.06 0.05 0.05 0.07 0.08 0.09 0.09 0.07 0.06 0.07 0.07 0.05 0.04 0.04 0.03 0.03 0.02 0.03 0.02 0.02 0.03 0.03 0.02 0.02 0.02 0.02 0.02 0.02 0.02 0.01 0.01 0.01 0.02 0.02 0.03 0.03 0.03 0.04
0.07 0.06 0.08 0.08 0.07 0.07 0.06 0.06 0.06 0.06 0.05 0.04 0.04 0.03 0.03 0.03 0.03 0.03 0.03 0.03 0.02 0.02 0.01 0.01 0.01 0.02 0.02 0.02 0.02 0.02 0.02 0.02 0.02 0.02 0.01 0.01 0.01 0.02 0.03 0.03 0.04 0.04 0.04
0.08 0.08 0.09 0.08 0.08 0.08 0.08 0.09 0.10 0.09 0.06 0.04 0.04 0.04 0.03 0.03 0.03 0.05 0.05 0.04 0.04 0.03 0.03 0.02 0.01 0.01 0.02 0.02 0.02 0.03 0.04 0.03 0.03 0.02 0.01 0.02 0.03 0.04 0.05 0.05 0.04 0.05 0.06
0.10 0.12 0.11 0.10 0.09 0.08 0.09 0.10 0.11 0.11 0.08 0.06 0.05 0.04 0.03 0.03 0.03 0.04 0.05 0.04 0.04 0.04 0.03 0.03 0.02 0.01 0.02 0.02 0.03 0.04 0.04 0.03 0.02 0.02 0.02 0.02 0.02 0.04 0.04 0.03 0.03 0.03 0.04
0.15 0.14 0.11 0.10 0.09 0.09 0.10 0.11 0.14 0.17 0.15 0.10 0.08 0.06 0.04 0.03 0.04 0.04 0.05 0.05 0.04 0.03 0.03 0.03 0.02 0.02 0.02 0.02 0.02 0.03 0.03 0.03 0.03 0.03 0.02 0.02 0.02 0.02 0.04 0.03 0.03 0.03 0.02
0.16 0.22 0.17 0.12 0.09 0.09 0.11 0.12 0.13 0.17 0.20 0.19 0.14 0.09 0.05 0.03 0.04 0.04 0.05 0.06 0.04 0.04 0.04 0.04 0.03 0.03 0.03 0.03 0.02 0.02 0.02 0.03 0.04 0.04 0.03 0.02 0.02 0.03 0.03 0.03 0.03 0.02 0.01
0.10 0.15 0.14 0.13 0.14 0.12 0.09 0.11 0.15 0.17 0.17 0.15 0.11 0.07 0.05 0.03 0.05 0.07 0.08 0.07 0.05 0.05 0.06 0.06 0.05 0.04 0.05 0.04 0.03 0.02 0.02 0.02 0.03 0.02 0.02 0.02 0.02 0.03 0.03 0.03 0.04 0.04 0.04
0.10 0.11 0.11 0.11 0.12 0.14 0.10 0.09 0.10 0.09 0.08 0.07 0.06 0.05 0.04 0.04 0.07 0.09 0.10 0.08 0.07 0.07 0.07 0.06 0.06 0.05 0.05 0.05 0.03 0.02 0.02 0.02 0.03 0.02 0.02 0.02 0.02 0.03 0.04 0.04 0.04 0.05 0.06
0.13 0.11 0.12 0.12 0.11 0.11 0.09 0.09 0.09 0.08 0.07 0.05 0.05 0.05 0.07 0.06 0.08 0.10 0.12 0.10 0.07 0.08 0.07 0.05 0.05 0.06 0.06 0.05 0.04 0.03 0.03 0.03 0.03 0.03 0.02 0.02 0.03 0.03 0.05 0.06 0.07 0.07 0.07
0.09 0.09 0.08 0.12 0.15 0.14 0.10 0.09 0.11 0.11 0.09 0.08 0.09 0.09 0.09 0.09 0.09 0.09 0.10 0.11 0.10 0.08 0.07 0.06 0.07 0.07 0.06 0.06 0.06 0.05 0.06 0.05 0.04 0.03 0.03 0.03 0.04 0.05 0.05 0.04 0.04 0.04 0.03
0.06 0.07 0.08 0.09 0.12 0.11 0.10 0.10 0.10 0.08 0.07 0.08 0.10 0.11 0.12 0.13 0.13 0.13 0.13 0.12 0.10 0.08 0.06 0.07 0.07 0.07 0.06 0.06 0.05 0.06 0.06 0.06 0.06 0.05 0.04 0.04 0.03 0.03 0.03 0.02 0.02 0.02 0.02
0.07 0.08 0.08 0.08 0.07 0.07 0.07 0.08 0.09 0.08 0.07 0.07 0.08 0.08 0.08 0.10 0.10 0.10 0.11 0.11 0.09 0.07 0.06 0.06 0.05 0.05 0.04 0.04 0.05 0.05 0.06 0.07 0.06 0.05 0.05 0.04 0.04 0.03 0.02 0.02 0.01 0.01 0.01
0.06 0.08 0.09 0.08 0.06 0.06 0.07 0.07 0.07 0.08 0.09 0.08 0.08 0.08 0.07 0.06 0.06 0.07 0.08 0.07 0.06 0.06 0.07 0.05 0.04 0.04 0.03 0.04 0.05 0.06 0.07 0.07 0.07 0.06 0.05 0.05 0.04 0.03 0.03 0.03 0.02 0.02 0.02
0.06 0.06 0.05 0.04 0.05 0.05 0.06 0.08 0.08 0.07 0.07 0.07 0.06 0.05 0.04 0.03 0.03 0.03 0.03 0.03 0.04 0.05 0.05 0.04 0.04 0.05 0.05 0.05 0.06 0.07 0.08 0.09 0.09 0.08 0.07 0.06 0.05 0.04 0.04 0.03 0.03 0.03 0.02
0.03 0.02 0.03 0.03 0.04 0.04 0.05 0.06 0.06 0.05 0.04 0.04 0.04 0.03 0.03 0.02 0.03 0.03 0.03 0.04 0.04 0.04 0.05 0.05 0.05 0.05 0.06 0.06 0.07 0.08 0.09 0.09 0.09 0.08 0.07 0.06 0.06 0.05 0.05 0.05 0.05 0.04 0.03
0.01 0.01 0.01 0.02 0.03 0.04 0.03 0.04 0.04 0.04 0.03 0.03 0.03 0.03 0.03 0.04 0.04 0.05 0.06 0.05 0.04 0.04 0.04 0.05 0.06 0.08 0.09 0.10 0.10 0.09 0.08 0.07 0.07 0.06 0.06 0.07 0.06 0.06 0.05 0.04 0.03 0.03 0.03
0.01 0.01 0.01 0.02 0.02 0.03 0.03 0.02 0.03 0.03 0.02 0.03 0.03 0.04 0.04 0.04 0.05 0.06 0.07 0.06 0.05 0.06 0.07 0.08 0.07 0.07 0.07 0.08 0.08 0.08 0.07 0.06 0.06 0.06 0.06 0.05 0.04 0.04 0.03 0.02 0.02 0.02 0.02
0.01 0.02 0.02 0.02 0.02 0.02 0.02 0.02 0.02 0.02 0.02 0.03 0.04 0.03 0.03 0.03 0.03 0.04 0.05 0.05 0.05 0.05 0.05 0.04 0.03 0.03 0.03 0.02 0.02 0.03 0.03 0.04 0.05 0.05 0.04 0.03 0.02 0.02 0.02 0.02 0.02 0.02 0.03
0.02 0.02 0.02 0.02 0.02 0.02 0.02 0.02 0.02 0.02 0.02 0.02 0.02 0.03 0.03 0.03 0.03 0.04 0.04 0.03 0.02 0.01 0.02 0.02 0.02 0.02 0.02 0.02 0.03 0.04 0.05 0.05 0.05 0.05 0.04 0.04 0.03 0.02 0.02 0.02 0.02 0.02 0.02
0.02 0.03 0.03 0.02 0.02 0.02 0.02 0.03 0.03 0.02 0.02 0.02 0.02 0.02 0.02 0.02 0.02 0.02 0.01 0.01 0.01 0.02 0.02 0.02 0.02 0.02 0.03 0.03 0.03 0.03 0.03 0.03 0.03 0.03 0.03 0.03 0.03 0.03 0.02 0.02 0.02 0.02 0.02
0.02 0.04 0.05 0.03 0.03 0.04 0.04 0.04 0.03 0.03 0.02 0.02 0.02 0.02 0.01 0.01 0.01 0.01 0.01 0.01 0.01 0.01 0.02 0.02 0.01 0.01 0.02 0.02 0.02 0.02 0.02 0.02 0.02 0.02 0.02 0.01 0.01 0.01 0.02 0.02 0.02 0.01 0.02
0.03 0.03 0.05 0.05 0.04 0.05 0.05 0.04 0.03 0.03 0.03 0.03 0.03 0.02 0.02 0.02 0.02 0.02 0.01 0.01 0.01 0.01 0.01 0.02 0.01 0.01 0.01 0.02 0.02 0.01 0.01 0.01 0.01 0.02 0.02 0.02 0.02 0.01 0.01 0.01 0.01 0.01 0.02
0.03 0.03 0.03 0.06 0.07 0.06 0.07 0.05 0.03 0.02 0.02 0.02 0.03 0.03 0.03 0.02 0.02 0.02 0.02 0.01 0.02 0.02 0.02 0.02 0.02 0.01 0.01 0.01 0.01 0.01 0.01 0.01 0.02 0.02 0.02 0.02 0.02 0.02 0.02 0.02 0.02 0.02 0.02
0.03 0.03 0.03 0.04 0.06 0.07 0.08 0.07 0.06 0.05 0.04 0.03 0.03 0.03 0.03 0.03 0.03 0.04 0.04 0.03 0.03 0.02 0.02 0.02 0.02 0.01 0.01 0.01 0.01 0.02 0.02 0.02 0.02 0.02 0.01 0.01 0.01 0.01 0.01 0.01 0.02 0.02 0.02
MSLP
1008.67 1009.23 1009.78 1010.29 1010.72 1011.06 1011.31 1011.48 1011.60 1011.71 1011.83 1011.99 1012.18 1012.40 1012.63 1012.86 1013.06 1013.23 1013.37 1013.50 1013.62 1013.75 1013.91 1014.10 1014.32 1014.55 1014.78 1015.01 1015.21 1015.39 1015.55 1015.70 1015.86 1016.03 1016.23 1016.45 1016.70 1016.96 1017.23 1017.50 1017.77 1018.04 1018.30
1008.19 1008.72 1009.27 1009.79 1010.24 1010.61 1010.88 1011.08 1011.23 1011.35 1011.48 1011.62 1011.79 1011.99 1012.19 1012.39 1012.57 1012.72 1012.85 1012.96 1013.07 1013.18 1013.32 1013.48 1013.66 1013.86 1014.07 1014.29 1014.50 1014.71 1014.92 1015.15 1015.40 1015.67 1015.98 1016.31 1016.66 1017.01 1017.35 1017.67 1017.97 1018.25 1018.51
1007.84 1008.34 1008.85 1009.35 1009.78 1010.14 1010.42 1010.63 1010.78 1010.92 1011.05 1011.19 1011.37 1011.55 1011.75 1011.95 1012.12 1012.28 1012.40 1012.51 1012.61 1012.72 1012.83 1012.96 1013.11 1013.27 1013.45 1013.63 1013.83 1014.05 1014.29 1014.57 1014.89 1015.25 1015.64 1016.06 1016.50 1016.92 1017.32 1017.69 1018.02 1018.32 1018.59
1007.65 1008.07 1008.53 1008.96 1009.35 1009.67 1009.92 1010.10 1010.25 1010.38 1010.52 1010.67 1010.86 1011.06 1011.28 1011.49 1011.69 1011.86 1012.01 1012.13 1012.24 1012.34 1012.44 1012.55 1012.66 1012.78 1012.92 1013.07 1013.25 1013.46 1013.71 1014.01 1014.37 1014.78 1015.23 1015.71 1016.20 1016.68 1017.12 1017.53 1017.89 1018.20 1018.49
1007.59 1007.94 1008.31 1008.66 1008.96 1009.20 1009.37 1009.51 1009.62 1009.74 1009.88 1010.05 1010.25 1010.49 1010.74 1010.99 1011.22 1011.43 1011.61 1011.77 1011.90 1012.01 1012.10 1012.20 1012.29 1012.39 1012.49 1012.61 1012.77 1012.96 1013.20 1013.50 1013.87 1014.29 1014.77 1015.28 1015.79 1016.30 1016.77 1017.19 1017.57 1017.91 1018.22
1007.69 1007.96 1008.23 1008.47 1008.65 1008.78 1008.86 1008.91 1008.96 1009.04 1009.16 1009.33 1009.56 1009.82 1010.11 1010.40 1010.68 1010.93 1011.16 1011.35 1011.51 1011.64 1011.76 1011.85 1011.94 1012.03 1012.12 1012.23 1012.36 1012.53 1012.76 1013.05 1013.41 1013.83 1014.30 1014.81 1015.32 1015.82 1016.30 1016.73 1017.12 1017.48 1017.81
1007.95 1008.14 1008.31 1008.43 1008.48 1008.48 1008.43 1008.38 1008.34 1008.36 1008.44 1008.59 1008.81 1009.09 1009.40 1009.72 1010.03 1010.33 1010.60 1010.83 1011.02 1011.19 1011.34 1011.46 1011.57 1011.67 1011.77 1011.88 1012.01 1012.18 1012.39 1012.67 1013.01 1013.41 1013.86 1014.34 1014.83 1015.32 1015.78 1016.21 1016.61 1016.98 1017.33
1008.36 1008.50 1008.58 1008.58 1008.51 1008.37 1008.19 1008.01 1007.87 1007.79 1007.80 1007.90 1008.09 1008.34 1008.65 1008.97 1009.30 1009.62 1009.92 1010.18 1010.41 1010.62 1010.81 1010.97 1011.12 1011.26 1011.39 1011.52 1011.67 1011.85 1012.07 1012.34 1012.66 1013.04 1013.46 1013.92 1014.38 1014.85 1015.29 1015.71 1016.11 1016.49 1016.87
1008.89 1009.01 1009.03 1008.94 1008.75 1008.48 1008.18 1007.87 1007.61 1007.43 1007.33 1007.35 1007.47 1007.66 1007.92 1008.22 1008.53 1008.84 1009.14 1009.43 1009.69 1009.94 1010.17 1010.39 1010.59 1010.77 1010.95 1011.13 1011.32 1011.53 1011.76 1012.04 1012.36 1012.73 1013.13 1013.56 1014.00 1014.45 1014.88 1015.30 1015.70 1016.09 1016.49
1009.50 1009.61 1009.59 1009.45 1009.18 1008.81 1008.39 1007.97 1007.59 1007.29 1007.08 1006.99 1007.00 1007.10 1007.28 1007.51 1007.77 1008.05 1008.34 1008.62 1008.91 1009.19 1009.46 1009.72 1009.97 1010.22 1010.46 1010.69 1010.92 1011.17 1011.44 1011.73 1012.07 1012.44 1012.84 1013.26 1013.70 1014.14 1014.57 1014.99 1015.40 1015.81 1016.23
1010.08 1010.20 1010.18 1010.01 1009.69 1009.26 1008.77 1008.26 1007.77 1007.35 1007.02 1006.81 1006.69 1006.68 1006.75 1006.89 1007.08 1007.30 1007.55 1007.83 1008.11 1008.41 1008.71 1009.02 1009.32 1009.61 1009.90 1010.19 1010.47 1010.76 1011.07 1011.40 1011.76 1012.15 1012.56 1013.00 1013.45 1013.90 1014.34 1014.78 1015.21 1015.65 1016.08
1010.53 1010.68 1010.67 1010.50 1010.17 1009.72 1009.18 1008.61 1008.05 1007.53 1007.09 1006.75 1006.52 1006.38 1006.33 1006.37 1006.47 1006.63 1006.83 1007.08 1007.36 1007.66 1007.99 1008.32 1008.65 1008.98 1009.31 1009.63 1009.95 1010.28 1010.63 1010.99 1011.39 1011.81 1012.26 1012.73 1013.21 1013.69 1014.17 1014.64 1015.10 1015.56 1016.01
1010.75 1010.91 1010.93 1010.78 1010.47 1010.03 1009.49 1008.89 1008.28 1007.70 1007.18 1006.73 1006.39 1006.14 1005.99 1005.92 1005.94 1006.04 1006.20 1006.41 1006.68 1006.98 1007.31 1007.65 1008.00 1008.34 1008.69 1009.03 1009.37 1009.73 1010.10 1010.50 1010.93 1011.40 1011.89 1012.41 1012.93 1013.46 1013.99 1014.50 1014.99 1015.48 1015.96
1010.67 1010.84 1010.87 1010.75 1010.48 1010.07 1009.55 1008.97 1008.35 1007.73 1007.16 1006.65 1006.22 1005.89 1005.65 1005.51 1005.47 1005.51 1005.63 1005.82 1006.07 1006.36 1006.68 1007.02 1007.36 1007.70 1008.04 1008.38 1008.73 1009.09 1009.49 1009.92 1010.39 1010.89 1011.44 1012.01 1012.59 1013.17 1013.75 1014.31 1014.85 1015.37 1015.86
1010.29 1010.44 1010.48 1010.38 1010.14 1009.78 1009.31 1008.76 1008.16 1007.55 1006.96 1006.42 1005.95 1005.56 1005.27 1005.09 1005.00 1005.01 1005.10 1005.28 1005.51 1005.79 1006.09 1006.40 1006.73 1007.04 1007.36 1007.69 1008.02 1008.39 1008.79 1009.25 1009.75 1010.30 1010.90 1011.52 1012.17 1012.81 1013.44 1014.05 1014.62 1015.17 1015.69
1009.67 1009.77 1009.79 1009.70 1009.49 1009.18 1008.76 1008.26 1007.70 1007.12 1006.55 1006.01 1005.52 1005.12 1004.81 1004.60 1004.50 1004.49 1004.58 1004.74 1004.96 1005.21 1005.49 1005.78 1006.07 1006.36 1006.65 1006.95 1007.27 1007.63 1008.04 1008.52 1009.05 1009.65 1010.29 1010.97 1011.67 1012.37 1013.05 1013.70 1014.31 1014.89 1015.41
1008.91 1008.95 1008.92 1008.83 1008.64 1008.36 1007.99 1007.54 1007.03 1006.49 1005.95 1005.43 1004.97 1004.57 1004.26 1004.05 1003.95 1003.94 1004.01 1004.16 1004.37 1004.61 1004.86 1005.12 1005.37 1005.63 1005.89 1006.17 1006.48 1006.85 1007.27 1007.77 1008.34 1008.98 1009.67 1010.40 1011.15 1011.90 1012.62 1013.30 1013.94 1014.53 1015.07
1008.15 1008.10 1008.02 1007.90 1007.71 1007.45 1007.11 1006.71 1006.25 1005.76 1005.25 1004.77 1004.32 1003.94 1003.65 1003.45 1003.34 1003.33 1003.40 1003.54 1003.73 1003.94 1004.17 1004.40 1004.63 1004.86 1005.10 1005.37 1005.69 1006.06 1006.51 1007.04 1007.65 1008.34 1009.08 1009.85 1010.64 1011.42 1012.17 1012.88 1013.54 1014.14 1014.69
1007.47 1007.34 1007.20 1007.03 1006.82 1006.57 1006.25 1005.87 1005.45 1004.99 1004.52 1004.07 1003.65 1003.29 1003.01 1002.81 1002.70 1002.68 1002.74 1002.86 1003.02 1003.21 1003.41 1003.62 1003.83 1004.05 1004.29 1004.57 1004.91 1005.32 1005.81 1006.38 1007.03 1007.76 1008.54 1009.36 1010.18 1010.98 1011.76 1012.48 1013.14 1013.75 1014.30
1006.93 1006.71 1006.50 1006.29 1006.05 1005.78 1005.46 1005.10 1004.69 1004.26 1003.81 1003.38 1002.98 1002.63 1002.35 1002.16 1002.04 1002.00 1002.04 1002.13 1002.27 1002.43 1002.61 1002.80 1003.01 1003.24 1003.50 1003.81 1004.19 1004.64 1005.18 1005.81 1006.51 1007.28 1008.10 1008.94 1009.78 1010.60 1011.38 1012.10 1012.77 1013.37 1013.92
1006.50 1006.21 1005.95 1005.68 1005.40 1005.10 1004.77 1004.40 1003.99 1003.57 1003.14 1002.71 1002.32 1001.98 1001.70 1001.49 1001.36 1001.30 1001.31 1001.37 1001.48 1001.63 1001.79 1001.99 1002.21 1002.46 1002.76 1003.12 1003.55 1004.06 1004.66 1005.34 1006.09 1006.90 1007.74 1008.60 1009.45 1010.27 1011.04 1011.76 1012.41 1013.02 1013.57
1006.12 1005.78 1005.45 1005.14 1004.81 1004.48 1004.11 1003.72 1003.31 1002.88 1002.45 1002.03 1001.64 1001.30 1001.01 1000.79 1000.65 1000.57 1000.56 1000.60 1000.70 1000.83 1001.00 1001.21 1001.46 1001.75 1002.10 1002.53 1003.02 1003.60 1004.25 1004.98 1005.77 1006.61 1007.47 1008.33 1009.17 1009.97 1010.73 1011.43 1012.07 1012.67 1013.21
1005.72 1005.33 1004.95 1004.57 1004.20 1003.81 1003.41 1003.00 1002.57 1002.13 1001.69 1001.27 1000.89 1000.55 1000.26 1000.05 999.89 999.81 999.80 999.84 999.94 1000.08 1000.28 1000.52 1000.81 1001.16 1001.57 1002.06 1002.62 1003.26 1003.97 1004.74 1005.55 1006.40 1007.25 1008.10 1008.92 1009.69 1010.42 1011.10 1011.73 1012.31 1012.85
1005.22 1004.77 1004.34 1003.91 1003.48 1003.04 1002.60 1002.15 1001.69 1001.24 1000.81 1000.39 1000.02 999.69 999.43 999.23 999.10 999.03 999.04 999.10 999.23 999.41 999.65 999.94 1000.29 1000.70 1001.19 1001.74 1002.36 1003.05 1003.80 1004.59 1005.41 1006.25 1007.09 1007.90 1008.69 1009.43 1010.13 1010.77 1011.38 1011.95 1012.48
1004.60 1004.10 1003.61 1003.11 1002.62 1002.13 1001.64 1001.16 1000.68 1000.22 999.79 999.39 999.04 998.75 998.52 998.36 998.27 998.25 998.30 998.42 998.60 998.84 999.14 999.50 999.92 1000.41 1000.96 1001.57 1002.24 1002.97 1003.73 1004.53 1005.34 1006.16 1006.96 1007.73 1008.47 1009.17 1009.83 1010.45 1011.03 1011.58 1012.09
1003.88 1003.33 1002.77 1002.22 1001.67 1001.13 1000.60 1000.08 999.58 999.12 998.69 998.32 998.01 997.76 997.59 997.49 997.47 997.52 997.64 997.83 998.09 998.41 998.78 999.22 999.71 1000.27 1000.87 1001.54 1002.24 1002.99 1003.76 1004.55 1005.34 1006.11 1006.87 1007.60 1008.29 1008.94 1009.56 1010.15 1010.70 1011.23 1011.73
Thickness
5786 5784 5781 5779 5777 5775 5771 5769 5767 5764 5762 5761 5759 5756 5753 5750 5748 5745 5743 5741 5738 5736 5734 5732 5730 5729 5728 5727 5726 5724 5722 5721 5718 5719 5720 5720 5719 5718 5717 5716 5715 5713 5712
5784 5781 5779 5777 5775 5772 5770 5767 5766 5763 5761 5759 5757 5755 5752 5749 5746 5743 5741 5739 5736 5734 5733 5730 5729 5727 5726 5725 5723 5721 5720 5720 5717 5715 5715 5715 5714 5714 5712 5711 5710 5709 5707
5781 5777 5775 5773 5771 5769 5767 5765 5763 5761 5759 5758 5755 5752 5750 5748 5746 5743 5740 5737 5735 5733 5731 5729 5727 5725 5723 5722 5720 5719 5718 5717 5715 5713 5711 5711 5710 5709 5707 5706 5705 5703 5702
5777 5774 5771 5770 5768 5767 5764 5763 5759 5757 5756 5754 5752 5750 5748 5746 5744 5742 5739 5736 5733 5731 5729 5728 5726 5724 5722 5720 5718 5716 5714 5712 5710 5708 5706 5705 5704 5703 5702 5700 5698 5698 5697
5772 5769 5768 5766 5764 5762 5760 5758 5755 5754 5752 5750 5748 5745 5743 5741 5740 5738 5735 5732 5729 5728 5726 5725 5724 5723 5722 5719 5717 5714 5711 5708 5705 5703 5701 5699 5698 5696 5696 5695 5693 5692 5690
5765 5762 5762 5760 5758 5755 5753 5751 5749 5748 5746 5744 5742 5741 5739 5739 5737 5734 5731 5728 5726 5724 5722 5722 5721 5719 5717 5716 5714 5713 5710 5706 5702 5699 5697 5695 5695 5694 5692 5689 5687 5684 5683
5760 5758 5756 5754 5751 5748 5745 5744 5743 5741 5739 5737 5736 5736 5735 5734 5733 5731 5728 5724 5722 5720 5719 5717 5717 5715 5712 5711 5709 5707 5705 5703 5701 5698 5694 5693 5691 5690 5687 5683 5681 5680 5679
5753 5751 5749 5746 5744 5743 5740 5739 5737 5735 5734 5732 5730 5730 5729 5728 5727 5725 5723 5720 5718 5717 5715 5714 5711 5709 5707 5704 5703 5700 5699 5697 5695 5693 5691 5690 5688 5686 5683 5681 5678 5674 5671
5743 5741 5740 5739 5736 5734 5733 5732 5732 5729 5726 5725 5724 5723 5723 5723 5722 5720 5717 5714 5712 5711 5709 5708 5706 5704 5702 5698 5695 5693 5692 5691 5689 5688 5686 5684 5682 5679 5677 5673 5670 5667 5665
5735 5734 5733 5732 5729 5726 5724 5724 5723 5721 5720 5720 5719 5718 5718 5717 5716 5713 5710 5708 5706 5704 5703 5701 5699 5698 5696 5692 5689 5687 5685 5684 5682 5680 5678 5676 5674 5672 5669 5668 5665 5661 5659
5726 5725 5723 5721 5720 5718 5717 5715 5714 5713 5713 5712 5712 5711 5710 5709 5707 5705 5703 5701 5699 5697 5695 5694 5692 5690 5688 5686 5682 5680 5679 5677 5674 5672 5670 5667 5665 5664 5661 5659 5657 5656 5653
5714 5713 5712 5711 5710 5710 5707 5706 5706 5705 5704 5703 5702 5700 5700 5699 5698 5697 5695 5693 5692 5689 5687 5686 5684 5681 5679 5677 5674 5672 5670 5667 5665 5663 5660 5658 5656 5655 5653 5651 5648 5646 5645
5703 5702 5702 5701 5699 5698 5698 5697 5697 5695 5693 5692 5690 5688 5688 5688 5687 5686 5684 5682 5681 5680 5679 5677 5675 5672 5669 5666 5665 5663 5660 5658 5656 5653 5651 5649 5647 5645 5643 5641 5639 5637 5635
5689 5688 5688 5687 5686 5686 5685 5686 5686 5685 5683 5680 5678 5677 5677 5677 5677 5676 5674 5672 5671 5669 5668 5666 5663 5661 5658 5656 5655 5652 5651 5648 5646 5643 5641 5639 5636 5634 5632 5630 5628 5627 5625
5676 5675 5676 5674 5673 5672 5672 5672 5673 5673 5672 5671 5669 5668 5666 5666 5666 5665 5664 5662 5661 5660 5657 5654 5653 5651 5648 5646 5644 5643 5641 5638 5635 5633 5631 5629 5626 5624 5622 5619 5617 5616 5614
5662 5662 5661 5661 5661 5660 5660 5660 5660 5660 5660 5659 5658 5658 5657 5656 5654 5654 5654 5652 5649 5647 5645 5644 5642 5640 5639 5637 5635 5632 5630 5628 5625 5623 5620 5618 5616 5614 5611 5609 5606 5604 5602
5649 5648 5648 5648 5648 5648 5649 5649 5649 5648 5648 5647 5647 5646 5645 5643 5642 5641 5641 5640 5637 5636 5635 5633 5630 5629 5627 5625 5623 5621 5619 5617 5614 5612 5609 5607 5605 5602 5600 5597 5595 5593 5591
5638 5638 5637 5637 5637 5637 5637 5637 5637 5638 5637 5636 5634 5633 5632 5631 5630 5629 5628 5628 5626 5624 5623 5622 5620 5618 5616 5615 5613 5610 5608 5605 5603 5601 5598 5596 5594 5591 5589 5586 5584 5582 5580
5629 5628 5628 5628 5627 5627 5626 5624 5625 5625 5625 5624 5623 5622 5620 5619 5619 5618 5618 5618 5617 5614 5612 5610 5609 5607 5605 5604 5603 5600 5597 5594 5592 5589 5586 5584 5583 5581 5579 5576 5573 5569 5568
5619 5619 5618 5617 5617 5616 5616 5615 5614 5614 5613 5613 5612 5611 5610 5609 5609 5608 5607 5606 5605 5603 5601 5599 5597 5595 5593 5591 5590 5587 5585 5582 5579 5577 5575 5573 5571 5570 5568 5565 5562 5559 5557
5609 5609 5609 5608 5607 5607 5606 5606 5606 5605 5604 5603 5601 5601 5599 5599 5599 5597 5596 5594 5593 5591 5589 5588 5586 5583 5581 5579 5577 5575 5573 5571 5568 5566 5564 5562 5560 5558 5556 5554 5551 5548 5546
5600 5600 5600 5599 5598 5597 5598 5597 5596 5595 5594 5593 5591 5590 5588 5588 5587 5586 5584 5583 5582 5580 5578 5576 5574 5572 5570 5568 5566 5564 5562 5560 5557 5555 5553 5551 5549 5547 5545 5543 5540 5538 5536
5592 5591 5590 5589 5589 5588 5588 5587 5586 5585 5584 5583 5582 5581 5579 5578 5577 5575 5574 5573 5571 5569 5567 5565 5562 5560 5558 5556 5555 5553 5551 5549 5547 5545 5543 5542 5539 5537 5535 5533 5531 5528 5526
5584 5583 5582 5581 5580 5579 5578 5578 5577 5576 5575 5573 5572 5571 5570 5568 5567 5565 5564 5562 5560 5558 5556 5554 5552 5551 5548 5546 5545 5543 5541 5539 5537 5536 5534 5532 5530 5528 5525 5523 5521 5519 5517
5575 5574 5573 5572 5571 5571 5570 5569 5568 5567 5566 5564 5563 5562 5560 5559 5557 5555 5553 5551 5550 5548 5547 5545 5543 5541 5539 5537 5536 5534 5532 5530 5528 5526 5524 5522 5521 5518 5516 5514 5512 5509 5507
5567 5566 5565 5564 5563 5562 5561 5561 5559 5558 5557 5556 5555 5553 5552 5550 5548 5547 5545 5543 5541 5538 5537 5535 5533 5531 5530 5528 5527 5525 5523 5521 5519 5516 5514 5512 5511 5508 5506 5504 5502 5499 5497